[[{"header":{"parameterUnit":"m.s-1","parameterCategory":1,"la1":30.2991,"la2":30.254,"lo1":-89.0895,"lo2":-89.0444,"dy":0.0017,"dx":0.0017,"nx":28,"ny":28,"refTime":"2024-12-31T03:00:00:Z","depth":0,"parameterNumber":2,"parameterNumberName":"U-component_of_WINDS"},"data":[0,0,0,0,0,0,0,0,0,0,0,0,0,0,0,0,0,0,0,0,0,0,0,0,0,0,0,0,0,0,0,0,0,0,0,0,0,0,0,0,0,0,0,0,0,0,0,0,0,0,0,0,0,0,0,0,0,0,1.9927,1.9929,0,2.0047,2.0048,2.005,2.0049,2.0047,2.0046,2.0044,2.0172,2.0177,2.0182,0,0,0,0,0,0,0,0,0,0,0,0,0,1.9704,1.9708,1.9927,1.9929,1.993,2.0047,2.0048,2.005,2.0049,2.0047,2.0045,2.0043,2.0171,2.0176,2.0182,0,0,0,0,0,0,0,0,0,0,0,0,0,1.981,1.971,1.9927,1.9944,1.9946,2.0046,2.0048,2.005,2.0049,2.0047,2.0045,2.0042,2.0169,2.0176,2.0183,2.0276,0,0,2.0205,2.0209,0,0,0,0,0,0,0,0,1.9804,1.9818,1.994,1.9943,1.9946,2.003,2.0017,2.0126,2.005,2.0011,2.0044,2.0041,2.0127,2.0138,2.0166,2.0282,2.0287,2.0206,2.021,2.0214,2.0216,0,0,0,0,0,0,0,1.9797,1.9813,1.9975,1.9942,1.9945,1.9947,1.996,2.0037,2.0081,2.0014,2.0014,2.0028,2.0129,2.0159,2.0169,2.0289,2.0206,2.0212,2.0217,2.022,2.049,2.0492,0,0,0,0,0,0,1.9785,1.9807,1.9971,1.9978,1.9868,1.9953,1.9967,2.0006,2.008,2.0089,2.003,2.0027,2.0147,2.016,2.0173,2.0288,2.0214,2.022,2.0225,2.0487,2.049,2.0493,0,0,0,0,0,0,1.9781,1.98,1.9966,1.9893,1.9914,1.9959,2.0003,2.0009,2.0039,2.0092,2.01,2.0052,2.0146,2.0163,2.025,2.0292,2.0224,2.023,2.0484,2.0488,2.0492,2.0518,0,0,0,0,0,0,1.9774,1.9798,1.9833,1.9894,1.9918,2.004,2.0006,2.0013,2.0051,2.0049,2.0115,2.0124,2.0145,2.0239,2.0258,2.0301,2.0236,2.048,2.0485,2.049,2.0513,2.0522,2.053,0,0,0,0,0,1.9766,1.9836,1.9834,1.9854,1.9962,2.0042,2.0056,2.0078,2.0055,2.0091,2.0125,2.0122,2.0284,2.0248,2.0269,2.0315,2.0478,2.0484,2.049,2.051,2.052,2.053,0,0,0,0,0,0,1.978,1.9844,1.9843,1.9934,1.9982,2.0042,2.0087,2.0088,2.0145,2.0141,2.0167,2.0182,2.027,2.0301,2.026,2.041,2.0379,2.0389,2.0386,2.0397,2.0405,2.0397,2.0242,0,0,0,0,0,1.9794,1.9852,1.9905,1.9981,2.0005,2.0042,2.0078,2.009,2.0142,2.0163,2.0203,2.0255,2.0318,2.0359,2.042,2.0517,2.0533,2.056,2.0568,2.0574,2.0584,2.064,2.0653,2.0514,2.0514,2.0514,0,0,1.9823,1.9865,1.99,1.9985,2.0023,2.0085,2.0059,2.0125,2.0172,2.0174,2.0258,2.029,2.035,2.0443,2.0486,2.0472,2.0626,2.0582,2.0587,2.0593,2.0647,2.066,2.0672,2.0518,2.0517,2.0516,0,0,1.9907,1.9944,2.0012,2.0051,2.0109,2.0134,2.015,2.0209,2.023,2.0315,2.0318,2.0374,2.0482,2.0525,2.0561,2.0662,2.0662,2.0681,2.0725,2.0779,2.079,2.08,2.0837,2.085,2.069,2.069,2.069,0,1.9937,2.0027,2.0047,2.0113,2.0151,2.0153,2.0223,2.0261,2.0337,2.0364,2.0346,2.0482,2.0522,2.0626,2.0651,2.0679,2.0701,2.0674,2.0786,2.0796,2.0806,2.0842,2.0856,2.0692,2.0692,2.0692,2.0691,0,2.0061,2.0125,2.0172,2.0244,2.0287,2.0355,2.0386,2.0428,2.0437,2.0464,2.0552,2.06,2.0671,2.0697,2.0706,2.0803,2.0792,2.078,2.0749,2.0821,2.0856,2.0869,2.0695,2.0694,2.0694,2.0693,0,0,2.0159,2.024,2.0257,2.029,2.0355,2.0406,2.0474,2.0542,2.0578,2.0631,2.0691,2.0782,2.0771,2.0812,2.0826,2.0874,2.0953,2.0856,2.0858,2.0874,2.1064,2.1074,2.1089,2.0953,2.0955,2.0958,2.106,0,2.0251,2.0371,2.039,2.0497,2.0557,2.056,2.062,2.0668,2.0695,2.0751,2.0782,2.0846,2.0826,2.0851,2.0898,2.0933,2.0992,2.0926,2.1011,2.1014,2.0997,2.1107,2.1118,2.1212,2.1073,2.1075,2.1077,0,2.0375,2.0429,2.0541,2.0598,2.0624,2.0678,2.0742,2.0795,2.085,2.0867,2.0912,2.0921,2.0995,2.096,2.1063,2.1018,2.1054,2.1077,2.1081,2.1091,2.1051,2.1122,2.1242,2.1256,2.1098,2.1097,2.1095,0,2.0436,2.0537,2.0618,2.0646,2.0715,2.0752,2.0783,2.0835,2.0875,2.0932,2.0959,2.1024,2.1061,2.1112,2.114,2.1111,2.1242,2.1209,2.126,2.1259,2.1288,2.1286,2.1417,2.1309,2.1309,2.1308,2.1308,0,2.0538,2.0606,2.0646,2.0696,2.0773,2.0796,2.0873,2.0903,2.095,2.1007,2.1015,2.1068,2.1101,2.116,2.1182,2.1266,2.1282,2.1299,2.1304,2.1299,2.1297,2.1324,2.1319,2.1312,2.1311,2.1311,2.131,0,2.062,2.0649,2.0737,2.0795,2.0811,2.0866,2.0916,2.0966,2.0992,2.1065,2.1083,2.1126,2.1196,2.1228,2.1316,2.1331,2.1426,2.1426,2.1407,2.1409,2.1459,2.1455,2.1613,2.1636,2.1511,2.1512,2.1513,0,2.0683,2.0736,2.0799,2.0837,2.0869,2.093,2.097,2.0995,2.1038,2.1105,2.1147,2.1216,2.1274,2.1386,2.1427,2.1494,2.1497,2.1548,2.1507,2.1501,2.15,2.1497,2.1503,2.1556,2.1557,2.1558,2.1559,0,2.0794,2.0806,2.0863,2.0926,2.0973,2.1024,2.1074,2.1106,2.1139,2.1187,2.1257,2.1302,2.139,2.1461,2.1531,2.1565,2.1569,2.1571,2.1587,2.1583,2.157,2.1579,2.1429,2.1567,2.1567,2.1566,2.1565,2.1565,2.087,2.0917,2.0969,2.1033,2.1073,2.112,2.117,2.1202,2.1261,2.1334,2.1346,2.1422,2.1477,2.1571,2.1608,2.1669,2.1657,2.168,2.1686,2.1691,2.1695,2.1559,2.1682,2.1682,2.1682,2.1681,2.1681,0,2.0982,2.1015,2.1074,2.1143,2.1194,2.119,2.1246,2.129,2.1356,2.1406,2.1462,2.1545,2.1613,2.1659,2.1728,2.1769,2.1773,2.1787,2.1785,2.1793,2.1701,2.1681,2.1783,2.1783,2.1783,2.1783,2.1783,2.1783,2.1046,2.1127,2.1145,2.1246,2.128,2.1353,2.1386,2.143,2.147,2.1561,2.1617,2.1646,2.1695,2.1769,2.1832,2.1844,2.187,2.1885,2.1897,2.181,2.1799,2.1789,2.1771,2.189,2.189,2.1984,2.1985,2.1986]},{"header":{"parameterUnit":"m.s-1","parameterCategory":1,"la1":30.2991,"la2":30.254,"lo1":-89.0895,"lo2":-89.0444,"dy":0.0017,"dx":0.0017,"nx":28,"ny":28,"refTime":"2024-12-31T03:00:00:Z","depth":0,"parameterNumber":3,"parameterNumberName":"V-component_of_WINDS"},"data":[0,0,0,0,0,0,0,0,0,0,0,0,0,0,0,0,0,0,0,0,0,0,0,0,0,0,0,0,0,0,0,0,0,0,0,0,0,0,0,0,0,0,0,0,0,0,0,0,0,0,0,0,0,0,0,0,0,0,2.2175,2.2175,0,2.2232,2.2233,2.2233,2.2248,2.2248,2.2248,2.2247,2.2304,2.2305,2.2307,0,0,0,0,0,0,0,0,0,0,0,0,0,2.2076,2.2078,2.2175,2.2175,2.2176,2.2232,2.2233,2.2233,2.2249,2.2248,2.2248,2.2247,2.2303,2.2305,2.2307,0,0,0,0,0,0,0,0,0,0,0,0,0,2.2125,2.2079,2.2174,2.219,2.2192,2.2232,2.2233,2.2234,2.2249,2.2248,2.2248,2.2247,2.2302,2.2305,2.2308,2.2335,0,0,2.2316,2.2317,0,0,0,0,0,0,0,0,2.2122,2.2128,2.2187,2.2189,2.2192,2.2233,2.2219,2.2267,2.2249,2.2227,2.2247,2.2247,2.228,2.2285,2.2297,2.2337,2.234,2.2316,2.2318,2.2319,2.232,0,0,0,0,0,0,0,2.2119,2.2126,2.2197,2.2188,2.2191,2.2194,2.22,2.2228,2.2256,2.2229,2.223,2.2237,2.2281,2.2294,2.2298,2.234,2.2316,2.2319,2.232,2.2321,2.2406,2.2407,0,0,0,0,0,0,2.2113,2.2123,2.2195,2.2199,2.2155,2.2196,2.2203,2.222,2.2256,2.2261,2.2237,2.2237,2.229,2.2295,2.23,2.2334,2.2319,2.2322,2.2323,2.2406,2.2407,2.2407,0,0,0,0,0,0,2.2111,2.2119,2.2193,2.2161,2.2171,2.2198,2.2217,2.2221,2.2234,2.2262,2.2267,2.2245,2.2289,2.2296,2.2326,2.2336,2.2323,2.2325,2.2405,2.2406,2.2407,2.2403,0,0,0,0,0,0,2.2108,2.2118,2.2129,2.2162,2.2173,2.2219,2.2218,2.2223,2.2239,2.224,2.2271,2.2275,2.2289,2.2322,2.2329,2.234,2.2327,2.2404,2.2406,2.2407,2.2402,2.2403,2.2404,0,0,0,0,0,2.2104,2.2125,2.213,2.2138,2.2187,2.2219,2.2226,2.2243,2.224,2.2251,2.2269,2.2274,2.2334,2.2325,2.2333,2.2345,2.2404,2.2405,2.2407,2.2401,2.2403,2.2404,0,0,0,0,0,0,2.2092,2.213,2.2135,2.2167,2.219,2.2222,2.2236,2.2244,2.2267,2.2267,2.2286,2.2293,2.2321,2.2336,2.2325,2.2373,2.2369,2.2372,2.2362,2.2364,2.2365,2.2361,2.233,0,0,0,0,0,2.2094,2.2117,2.2148,2.2174,2.2185,2.2209,2.2223,2.2234,2.2259,2.2268,2.2288,2.2311,2.2335,2.235,2.2374,2.2404,2.2411,2.2416,2.2417,2.2418,2.2421,2.2438,2.2441,2.2412,2.2412,2.2412,0,0,2.2096,2.2119,2.2133,2.2172,2.2191,2.2215,2.2217,2.2242,2.2259,2.2272,2.2302,2.2317,2.2344,2.2374,2.2388,2.2387,2.243,2.242,2.2421,2.2423,2.244,2.2442,2.2445,2.2413,2.2413,2.2413,0,0,2.2113,2.2133,2.2156,2.2176,2.2205,2.2221,2.2226,2.2257,2.2268,2.2299,2.2309,2.233,2.2371,2.2389,2.2404,2.2429,2.2435,2.2436,2.2442,2.2459,2.2461,2.2463,2.2472,2.2475,2.2438,2.2438,2.2438,0,2.2112,2.2149,2.2167,2.2192,2.2209,2.2222,2.2246,2.2263,2.2298,2.231,2.2308,2.236,2.2379,2.2414,2.242,2.2431,2.2438,2.2432,2.2459,2.2462,2.2464,2.2473,2.2476,2.2438,2.2438,2.2438,2.2438,0,2.2147,2.2172,2.2187,2.2222,2.224,2.2264,2.2286,2.2302,2.2312,2.2328,2.2359,2.2382,2.241,2.2419,2.2428,2.2456,2.2454,2.2456,2.2452,2.2466,2.2475,2.2478,2.2438,2.2438,2.2438,2.2438,0,0,2.2157,2.2202,2.2208,2.2224,2.2257,2.2277,2.2301,2.2331,2.2344,2.2368,2.2389,2.2424,2.2425,2.2442,2.2453,2.2468,2.2486,2.2468,2.2469,2.2471,2.2518,2.2517,2.252,2.2491,2.2491,2.2492,2.2516,0,2.2178,2.2224,2.2241,2.2278,2.2302,2.2315,2.2336,2.2359,2.2374,2.2396,2.2413,2.2437,2.2438,2.2448,2.2463,2.2481,2.2496,2.2479,2.251,2.2511,2.2503,2.2525,2.2524,2.2545,2.2519,2.252,2.252,0,2.2209,2.2234,2.2273,2.2305,2.2315,2.2334,2.2363,2.2384,2.2409,2.2419,2.2439,2.2449,2.2475,2.247,2.2506,2.2494,2.2507,2.2518,2.2519,2.2523,2.2516,2.2529,2.2553,2.2556,2.2526,2.2525,2.2525,0,2.2213,2.2256,2.2286,2.2299,2.2336,2.2349,2.2365,2.2391,2.2407,2.2432,2.2442,2.2469,2.2484,2.2504,2.2521,2.2516,2.2555,2.2551,2.2564,2.2564,2.2572,2.2571,2.2598,2.258,2.258,2.258,2.258,0,2.2234,2.2258,2.2288,2.2306,2.2333,2.2353,2.2379,2.2395,2.2418,2.2439,2.2452,2.2471,2.2493,2.2515,2.2528,2.2556,2.2562,2.2571,2.2574,2.257,2.2569,2.2579,2.2578,2.2581,2.2581,2.2581,2.258,0,2.2243,2.2264,2.2297,2.233,2.2339,2.2357,2.2385,2.2403,2.2419,2.2446,2.2453,2.2478,2.2505,2.2524,2.2558,2.2568,2.2597,2.26,2.2589,2.259,2.2602,2.2601,2.2636,2.2642,2.262,2.2621,2.2621,0,2.2256,2.2274,2.231,2.2325,2.2341,2.2366,2.2383,2.2403,2.2421,2.2452,2.2466,2.2494,2.2517,2.2559,2.258,2.2606,2.261,2.2621,2.2614,2.2609,2.261,2.2609,2.2611,2.2622,2.2622,2.2622,2.2622,0,2.2276,2.2286,2.231,2.2339,2.236,2.2383,2.2406,2.2418,2.2442,2.2461,2.2489,2.2507,2.2543,2.257,2.2599,2.2614,2.2622,2.2624,2.2628,2.2624,2.2617,2.2621,2.2592,2.2623,2.2623,2.2623,2.2623,2.2623,2.2287,2.2304,2.2332,2.2359,2.2379,2.2401,2.242,2.2439,2.2463,2.2494,2.2504,2.2533,2.2559,2.2598,2.2614,2.2636,2.2636,2.2642,2.2644,2.2645,2.2645,2.2613,2.2642,2.2642,2.2642,2.2642,2.2642,0,2.2308,2.2326,2.2351,2.2384,2.2406,2.2413,2.2439,2.2456,2.2482,2.2506,2.2529,2.2561,2.2588,2.2611,2.2639,2.2652,2.2656,2.2659,2.2658,2.2661,2.2644,2.2637,2.2655,2.2655,2.2655,2.2655,2.2655,2.2655,2.2321,2.2351,2.2364,2.2404,2.2423,2.2452,2.2467,2.2487,2.2506,2.2542,2.2564,2.258,2.2603,2.2633,2.2657,2.2663,2.2673,2.2674,2.2681,2.2664,2.2663,2.2661,2.2655,2.2676,2.2676,2.2697,2.2697,2.2698]}]]